Погода в Опалихе

Россия / Нижегородская область     56°30′56″N   44°12′51″E
темп.,
°C
ветер,
м/с
пор.,
м/с
влажн.,
%
обл.,
%
осадки,
мм/ч
давл.,
гПа
погр.,
м
17 мая, вт
вт1700:00+7з3692100 0.0 1001516
03:00+7зюз3693100 0.0 1000423
06:00+7зюз2498100 1.4 999263
09:00+7юз1291100 2.4 1000241
12:00+8ю2389100 0.1 1000499
15:00+8ююз238590 0.3 1001496
18:00+9зюз118070 0.0 1001451
21:00+7зюз229088 0.1 100232
18 мая, ср
ср1800:00+8сз2695100 0.1 1002285
03:00+7с41095100 0.7 1003568
06:00+6с41093100 1.6 1004514
09:00+6с389091 1.9 1006550
12:00+10ссз466499 0.1 10071394
15:00+13сз2644100 0.1 10072036
18:00+10сз5861100 0.1 10081004
21:00+6ссз2583100 0.2 1010218
19 мая, чт
чт1900:00+5сз3692100 0.2 1010898
03:00+3зсз499667 0.4 1010485
06:00+4з3589100 0.0 1010330
09:00+5сз3485100 0.3 1010741
12:00+7зсз458095 0.5 1010942
15:00+10ссз584886 1.1 10102016
18:00+9зсз575689 0.1 10111270
21:00+5сз3777100 0.1 1012463
20 мая, пт
пт2000:00+4з3780100 0.0 1012195
03:00+4зсз3782100 0.0 1012484
06:00+4ссз478256 0.1 1014592
09:00+7ссз575757 0.1 10151519
12:00+7ссз5762100 0.3 10161394
15:00+10ссз575399 0.4 10151678
18:00+9ссз376755 0.7 10151064
21:00+4зсз11785 1.0 101610
21 мая, сб
сб2100:00+3сз238493 0.0 101539
03:00+1ссв258717 0.0 1015115
06:00+3ссв367615 0.0 1015292
09:00+8ссз46475 0.0 10151250
12:00+10с453883 0.0 10132092
15:00+12с4533100 0.0 10122452
18:00+10ссв4644100 0.0 10121223
21:00+6ссв2859100 0.0 1013182